,,,PA_Meas_PMT16A,,PR_Meas_QMR101_102,,RH_Meas_QMH101,,SR_Meas_QMS101,,TA_Meas_QMH101,,GenWind,,GenWind,
date,time,status,PA,status,PR,status,RH,status,SR,status,TA,status,DirAvg,status,SpdAvg,
2011-12-24, 00:00:04,VALID,998.659,VALID,0,VALID,80.7441,VALID,0,VALID,26.6245,VALID,354,VALID,0.744531,
2011-12-24, 00:01:04,VALID,998.653,VALID,0,VALID,80.6449,VALID,0,VALID,26.605,VALID,355,VALID,1.28086,
2011-12-24, 00:02:04,VALID,998.614,VALID,0,VALID,80.8738,VALID,0,VALID,26.605,VALID,3,VALID,0.934375,
2011-12-24, 00:03:04,VALID,998.612,VALID,0,VALID,81.156,VALID,0,VALID,26.5661,VALID,20,VALID,0.683984,
2011-12-24, 00:04:04,VALID,998.585,VALID,0,VALID,80.9272,VALID,0,VALID,26.5271,VALID,354,VALID,1.33438,
2011-12-24, 00:05:04,VALID,998.582,VALID,0,VALID,81.2628,VALID,0,VALID,26.5271,VALID,346,VALID,0.611719,
2011-12-24, 00:06:04,VALID,998.558,VALID,0,VALID,81.3696,VALID,0,VALID,26.4861,VALID,345,VALID,0.796875,
2011-12-24, 00:07:04,VALID,998.543,VALID,0,VALID,80.8738,VALID,0,VALID,26.5096,VALID,344,VALID,1.32383,
2011-12-24, 00:08:04,VALID,998.509,VALID,0,VALID,81.5451,VALID,0,VALID,26.5076,VALID,350,VALID,0.727734,
2011-12-24, 00:09:04,VALID,998.516,VALID,0,VALID,81.2323,VALID,0,VALID,26.4492,VALID,352,VALID,1.61367,
2011-12-24, 00:10:04,VALID,998.451,VALID,0,VALID,81.6367,VALID,0,VALID,26.4102,VALID,2,VALID,1.33906,
2011-12-24, 00:11:04,VALID,998.465,VALID,0,VALID,81.5146,VALID,0,VALID,26.4102,VALID,328,VALID,1.30898,
2011-12-24, 00:12:04,VALID,998.445,VALID,0,VALID,82.1402,VALID,0,VALID,26.3907,VALID,352,VALID,1.15586,
2011-12-24, 00:13:04,VALID,998.419,VALID,0,VALID,82.308,VALID,0,VALID,26.3713,VALID,347,VALID,1.04727,
2011-12-24, 00:14:04,VALID,998.395,VALID,0,VALID,81.896,VALID,0,VALID,26.3518,VALID,342,VALID,1.31406,
2011-12-24, 00:15:04,VALID,998.371,VALID,0,VALID,82.1096,VALID,0,VALID,26.3907,VALID,353,VALID,1.48906,
2011-12-24, 00:16:04,VALID,998.337,VALID,0,VALID,82.2241,VALID,0,VALID,26.3907,VALID,350,VALID,0.929297,
2011-12-24, 00:17:04,VALID,998.31,VALID,0,VALID,82.5216,VALID,0,VALID,26.3518,VALID,350,VALID,0.732813,
2011-12-24, 00:18:04,VALID,998.286,VALID,0,VALID,82.4377,VALID,0,VALID,26.3518,VALID,347,VALID,1.50703,
2011-12-24, 00:19:04,VALID,998.248,VALID,0,VALID,82.8115,VALID,0,VALID,26.3518,VALID,346,VALID,0.712891,
2011-12-24, 00:20:04,VALID,998.225,VALID,0,VALID,83.0098,VALID,0,VALID,26.3323,VALID,348,VALID,0.666016,
2011-12-24, 00:21:04,VALID,998.223,VALID,0,VALID,82.9107,VALID,0,VALID,26.3323,VALID,332,VALID,0.588281,
2011-12-24, 00:22:04,VALID,998.223,VALID,0,VALID,83.0632,VALID,0,VALID,26.2913,VALID,347,VALID,1.01563,
2011-12-24, 00:23:04,VALID,998.186,VALID,0,VALID,83.1853,VALID,0,VALID,26.2933,VALID,335,VALID,1.22266,
2011-12-24, 00:24:04,VALID,998.187,VALID,0,VALID,83.315,VALID,0,VALID,26.2933,VALID,350,VALID,0.723828,
2011-12-24, 00:25:04,VALID,998.143,VALID,0,VALID,83.5134,VALID,0,VALID,26.3128,VALID,349,VALID,1.05898,
2011-12-24, 00:26:04,VALID,998.137,VALID,0,VALID,83.5591,VALID,0,VALID,26.2913,VALID,343,VALID,0.921094,
2011-12-24, 00:27:04,VALID,998.123,VALID,0,VALID,83.5744,VALID,0,VALID,26.2933,VALID,354,VALID,1.12305,
2011-12-24, 00:28:04,VALID,998.091,VALID,0,VALID,83.7727,VALID,0,VALID,26.2933,VALID,349,VALID,1.01719,
2011-12-24, 00:29:04,VALID,998.051,VALID,0,VALID,84.0016,VALID,0,VALID,26.2524,VALID,346,VALID,1.10938,
2011-12-24, 00:30:04,VALID,998.014,VALID,0,VALID,84.3983,VALID,0,VALID,26.2544,VALID,336,VALID,0.71875,
2011-12-24, 00:31:04,VALID,998.024,VALID,0,VALID,84.3525,VALID,0,VALID,26.2349,VALID,347,VALID,1.5875,
2011-12-24, 00:32:04,VALID,998.006,VALID,0,VALID,84.5967,VALID,0,VALID,26.2134,VALID,335,VALID,1.11758,
2011-12-24, 00:33:04,VALID,997.983,VALID,0,VALID,84.734,VALID,0,VALID,26.2154,VALID,324,VALID,0.698828,
2011-12-24, 00:34:04,VALID,997.936,VALID,0,VALID,84.7645,VALID,0,VALID,26.1959,VALID,347,VALID,0.874219,
2011-12-24, 00:35:04,VALID,997.956,VALID,0,VALID,84.9934,VALID,0,VALID,26.157,VALID,4,VALID,1.29375,
2011-12-24, 00:36:04,VALID,997.926,VALID,0,VALID,85.123,VALID,0,VALID,26.1375,VALID,324,VALID,0.839844,
2011-12-24, 00:37:04,VALID,997.947,VALID,0,VALID,85.2756,VALID,0,VALID,26.118,VALID,348,VALID,1.05742,
2011-12-24, 00:38:04,VALID,997.923,VALID,0,VALID,85.5579,VALID,0,VALID,26.0985,VALID,344,VALID,0.258594,
2011-12-24, 00:39:04,VALID,997.931,VALID,0,VALID,85.5198,VALID,0,VALID,26.0596,VALID,346,VALID,0.590625,
2011-12-24, 00:40:04,VALID,997.915,VALID,0,VALID,85.6113,VALID,0,VALID,26.0401,VALID,335,VALID,0.525391,
2011-12-24, 00:41:04,VALID,997.962,VALID,0,VALID,85.9851,VALID,0,VALID,26.0206,VALID,328,VALID,0.478516,
2011-12-24, 00:42:04,VALID,997.936,VALID,0,VALID,86.1224,VALID,0,VALID,26.0012,VALID,335,VALID,0.491016,
2011-12-24, 00:43:04,VALID,997.914,VALID,0,VALID,86.2598,VALID,0,VALID,25.9602,VALID,350,VALID,0.975391,
2011-12-24, 00:44:04,VALID,997.914,VALID,0,VALID,86.481,VALID,0,VALID,25.9622,VALID,306,VALID,0.307031,
2011-12-24, 00:45:04,VALID,997.929,VALID,0,VALID,86.6183,VALID,0,VALID,25.9622,VALID,309,VALID,0.331641,
2011-12-24, 00:46:04,VALID,997.909,VALID,0,VALID,86.8701,VALID,0,VALID,25.9622,VALID,280,VALID,0.0832031,
2011-12-24, 00:47:04,VALID,997.879,VALID,0,VALID,86.9769,VALID,0,VALID,25.9427,VALID,313,VALID,0.627344,
2011-12-24, 00:48:04,VALID,997.86,VALID,0,VALID,87.2973,VALID,0,VALID,25.9427,VALID,309,VALID,0.722266,
2011-12-24, 00:49:04,VALID,997.843,VALID,0,VALID,87.3125,VALID,0,VALID,25.9408,VALID,342,VALID,1.21719,
2011-12-24, 00:50:04,VALID,997.846,VALID,0,VALID,87.5567,VALID,0,VALID,25.9622,VALID,21,VALID,0.680078,
2011-12-24, 00:51:04,VALID,997.811,VALID,0,VALID,87.4346,VALID,0,VALID,25.9817,VALID,329,VALID,0.395703,
2011-12-24, 00:52:04,VALID,997.799,VALID,0,VALID,87.549,VALID,0,VALID,25.9622,VALID,360,VALID,0.565625,
2011-12-24, 00:53:04,VALID,997.807,VALID,0,VALID,87.6177,VALID,0,VALID,25.9622,VALID,335,VALID,1.24609,
2011-12-24, 00:54:04,VALID,997.792,VALID,0,VALID,87.8466,VALID,0,VALID,25.9622,VALID,346,VALID,1.1375,
2011-12-24, 00:55:04,VALID,997.781,VALID,0,VALID,87.9534,VALID,0,VALID,25.9602,VALID,351,VALID,0.686719,
2011-12-24, 00:56:04,VALID,997.76,VALID,0,VALID,87.9228,VALID,0,VALID,25.9622,VALID,350,VALID,0.823047,
2011-12-24, 00:57:04,VALID,997.753,VALID,0,VALID,88.0296,VALID,0,VALID,25.9602,VALID,350,VALID,0.841016,
2011-12-24, 00:58:04,VALID,997.735,VALID,0,VALID,87.9076,VALID,0,VALID,25.9408,VALID,2,VALID,0.691016,
2011-12-24, 00:59:04,VALID,997.708,VALID,0,VALID,87.9381,VALID,0,VALID,25.9622,VALID,348,VALID,0.509766,
2011-12-24, 01:00:04,VALID,997.713,VALID,0,VALID,87.8694,VALID,0,VALID,25.9622,VALID,356,VALID,0.6125,
2011-12-24, 01:01:04,VALID,997.674,VALID,0,VALID,87.7932,VALID,0,VALID,25.9817,VALID,342,VALID,1.28828,
2011-12-24, 01:02:04,VALID,997.675,VALID,0,VALID,87.8313,VALID,0,VALID,25.9817,VALID,359,VALID,0.967578,
2011-12-24, 01:03:04,VALID,997.646,VALID,0,VALID,87.6558,VALID,0,VALID,25.9408,VALID,348,VALID,1.09961,
2011-12-24, 01:04:04,VALID,997.629,VALID,0,VALID,87.5338,VALID,0,VALID,25.9622,VALID,342,VALID,1.43789,
2011-12-24, 01:05:04,VALID,997.641,VALID,0,VALID,87.8389,VALID,0.0815089,VALID,25.9817,VALID,343,VALID,0.872656,
2011-12-24, 01:06:04,VALID,997.644,VALID,0,VALID,87.4575,VALID,0,VALID,25.9622,VALID,310,VALID,0.903125,
2011-12-24, 01:07:04,VALID,997.645,VALID,0,VALID,87.3354,VALID,0,VALID,25.9602,VALID,347,VALID,1.06953,
2011-12-24, 01:08:04,VALID,997.645,VALID,0,VALID,87.0379,VALID,0,VALID,25.9602,VALID,345,VALID,1.54023,
2011-12-24, 01:09:04,VALID,997.699,VALID,0,VALID,87.0608,VALID,0,VALID,26.0012,VALID,338,VALID,1.29922,
2011-12-24, 01:10:04,VALID,997.672,VALID,0,VALID,86.9311,VALID,0,VALID,26.0012,VALID,346,VALID,0.771094,
2011-12-24, 01:11:04,VALID,997.662,VALID,0,VALID,86.8395,VALID,0,VALID,26.0012,VALID,344,VALID,0.846484,
2011-12-24, 01:12:04,VALID,997.665,VALID,0,VALID,86.8701,VALID,0,VALID,26.0206,VALID,352,VALID,1.04727,
2011-12-24, 01:13:04,VALID,997.673,VALID,0,VALID,86.6183,VALID,0,VALID,26.0206,VALID,337,VALID,1.13398,
2011-12-24, 01:14:04,VALID,997.692,VALID,0,VALID,86.4428,VALID,0,VALID,25.9992,VALID,341,VALID,1.31602,
2011-12-24, 01:15:04,VALID,997.681,VALID,0,VALID,86.1072,VALID,0,VALID,26.0381,VALID,1,VALID,0.791406,
2011-12-24, 01:16:04,VALID,997.663,VALID,0,VALID,86.0004,VALID,0,VALID,26.0576,VALID,349,VALID,1.05234,
2011-12-24, 01:17:04,VALID,997.683,VALID,0,VALID,85.5655,VALID,0,VALID,26.0791,VALID,341,VALID,1.01953,
2011-12-24, 01:18:04,VALID,997.685,VALID,0,VALID,84.9247,VALID,0,VALID,26.0791,VALID,345,VALID,1.17578,
2011-12-24, 01:19:04,VALID,997.66,VALID,0,VALID,84.8255,VALID,0,VALID,26.0966,VALID,354,VALID,1.47773,
2011-12-24, 01:20:04,VALID,997.674,VALID,0,VALID,84.7111,VALID,0,VALID,26.1375,VALID,339,VALID,1.41562,
2011-12-24, 01:21:04,VALID,997.665,VALID,0,VALID,84.6424,VALID,0,VALID,26.1355,VALID,353,VALID,1.14297,
2011-12-24, 01:22:04,VALID,997.649,VALID,0,VALID,84.6272,VALID,0,VALID,26.1355,VALID,349,VALID,0.991016,
2011-12-24, 01:23:04,VALID,997.672,VALID,0,VALID,84.7874,VALID,0,VALID,26.1355,VALID,350,VALID,0.779297,
2011-12-24, 01:24:04,VALID,997.64,VALID,0,VALID,84.9323,VALID,0,VALID,26.157,VALID,343,VALID,0.855078,
2011-12-24, 01:25:04,VALID,997.633,VALID,0,VALID,84.9628,VALID,0,VALID,26.1375,VALID,349,VALID,1.62852,
2011-12-24, 01:26:04,VALID,997.651,VALID,0,VALID,85.4358,VALID,0,VALID,26.116,VALID,344,VALID,1.17266,
2011-12-24, 01:27:04,VALID,997.647,VALID,0,VALID,85.5884,VALID,0,VALID,26.118,VALID,338,VALID,1.25898,
2011-12-24, 01:28:04,VALID,997.652,VALID,0,VALID,85.6189,VALID,0,VALID,26.0985,VALID,342,VALID,1.41875,
2011-12-24, 01:29:04,VALID,997.655,VALID,0,VALID,85.8631,VALID,0,VALID,26.0985,VALID,359,VALID,1.20508,
2011-12-24, 01:30:04,VALID,997.652,VALID,0,VALID,86.2292,VALID,0,VALID,26.0791,VALID,355,VALID,0.805859,
2011-12-24, 01:31:04,VALID,997.635,VALID,0,VALID,86.3132,VALID,0,VALID,26.0187,VALID,352,VALID,1.07773,
2011-12-24, 01:32:04,VALID,997.651,VALID,0,VALID,86.4428,VALID,0,VALID,26.0206,VALID,348,VALID,1.20625,
2011-12-24, 01:33:04,VALID,997.656,VALID,0,VALID,86.7404,VALID,0,VALID,25.9817,VALID,350,VALID,1.15625,
2011-12-24, 01:34:04,VALID,997.643,VALID,0,VALID,86.9082,VALID,0,VALID,25.9817,VALID,355,VALID,1.45156,
2011-12-24, 01:35:04,VALID,997.639,VALID,0,VALID,86.9998,VALID,0,VALID,25.9642,VALID,331,VALID,1.18477,
2011-12-24, 01:36:04,VALID,997.655,VALID,0,VALID,87.0684,VALID,0,VALID,25.9232,VALID,339,VALID,1.53281,
2011-12-24, 01:37:04,VALID,997.625,VALID,0,VALID,87.1523,VALID,0,VALID,25.9232,VALID,340,VALID,1.08359,
2011-12-24, 01:38:04,VALID,997.606,VALID,0,VALID,87.3202,VALID,0,VALID,25.9038,VALID,343,VALID,0.535547,
2011-12-24, 01:39:04,VALID,997.633,VALID,0,VALID,87.1828,VALID,0,VALID,25.9038,VALID,350,VALID,1.29453,
2011-12-24, 01:40:04,VALID,997.641,VALID,0,VALID,87.2896,VALID,0,VALID,25.8843,VALID,353,VALID,1.32773,
2011-12-24, 01:41:04,VALID,997.642,VALID,0,VALID,87.2286,VALID,0,VALID,25.8648,VALID,341,VALID,1.42695,
2011-12-24, 01:42:04,VALID,997.633,VALID,0,VALID,87.3812,VALID,0,VALID,25.8239,VALID,344,VALID,1.1375,
2011-12-24, 01:43:04,VALID,997.601,VALID,0,VALID,87.2896,VALID,0,VALID,25.8453,VALID,344,VALID,1.06836,
2011-12-24, 01:44:04,VALID,997.59,VALID,0,VALID,87.4422,VALID,0,VALID,25.8259,VALID,353,VALID,0.953516,
2011-12-24, 01:45:04,VALID,997.593,VALID,0,VALID,87.2668,VALID,0,VALID,25.8064,VALID,351,VALID,0.996094,
2011-12-24, 01:46:04,VALID,997.549,VALID,0,VALID,87.1981,VALID,0,VALID,25.785,VALID,332,VALID,1.74141,
2011-12-24, 01:47:04,VALID,997.559,VALID,0,VALID,87.2668,VALID,0,VALID,25.7869,VALID,350,VALID,0.891797,
2011-12-24, 01:48:04,VALID,997.543,VALID,0,VALID,86.748,VALID,0,VALID,25.7889,VALID,344,VALID,2.04844,
2011-12-24, 01:49:04,VALID,997.55,VALID,0,VALID,86.7709,VALID,0,VALID,25.7869,VALID,351,VALID,1.43125,
2011-12-24, 01:50:04,VALID,997.549,VALID,0,VALID,86.809,VALID,0,VALID,25.8064,VALID,335,VALID,0.942578,
2011-12-24, 01:51:04,VALID,997.528,VALID,0,VALID,86.7175,VALID,0,VALID,25.7869,VALID,347,VALID,0.782812,
2011-12-24, 01:52:04,VALID,997.551,VALID,0,VALID,86.9158,VALID,0,VALID,25.7674,VALID,316,VALID,0.401172,
2011-12-24, 01:53:04,VALID,997.536,VALID,0,VALID,86.9692,VALID,0,VALID,25.7889,VALID,336,VALID,0.762891,
2011-12-24, 01:54:04,VALID,997.568,VALID,0,VALID,86.8243,VALID,0,VALID,25.7869,VALID,273,VALID,0.707031,
2011-12-24, 01:55:04,VALID,997.546,VALID,0,VALID,86.8853,VALID,0,VALID,25.7674,VALID,350,VALID,0.676562,
2011-12-24, 01:56:04,VALID,997.54,VALID,0,VALID,86.8167,VALID,0,VALID,25.748,VALID,355,VALID,0.985547,
2011-12-24, 01:57:04,VALID,997.54,VALID,0,VALID,86.8853,VALID,0,VALID,25.7265,VALID,356,VALID,0.678125,
2011-12-24, 01:58:04,VALID,997.547,VALID,0,VALID,86.9006,VALID,0,VALID,25.7265,VALID,339,VALID,0.4875,
2011-12-24, 01:59:04,VALID,997.554,VALID,0,VALID,86.7785,VALID,0,VALID,25.748,VALID,347,VALID,1.13281,
2011-12-24, 02:00:04,VALID,997.546,VALID,0,VALID,86.7099,VALID,0,VALID,25.7071,VALID,343,VALID,0.872266,
2011-12-24, 02:01:04,VALID,997.557,VALID,0,VALID,86.6717,VALID,0,VALID,25.7285,VALID,351,VALID,0.898047,
2011-12-24, 02:02:04,VALID,997.533,VALID,0,VALID,86.5268,VALID,0,VALID,25.7285,VALID,348,VALID,0.975781,
2011-12-24, 02:03:04,VALID,997.526,VALID,0,VALID,86.8701,VALID,0,VALID,25.7285,VALID,342,VALID,0.450781,
2011-12-24, 02:04:04,VALID,997.543,VALID,0,VALID,86.5878,VALID,0,VALID,25.7285,VALID,344,VALID,1.25977,
2011-12-24, 02:05:04,VALID,997.531,VALID,0,VALID,86.6641,VALID,0,VALID,25.7285,VALID,353,VALID,0.687891,
2011-12-24, 02:06:04,VALID,997.535,VALID,0,VALID,86.5496,VALID,0,VALID,25.748,VALID,350,VALID,0.594141,
2011-12-24, 02:07:04,VALID,997.548,VALID,0,VALID,86.5344,VALID,0,VALID,25.7285,VALID,351,VALID,0.717969,
2011-12-24, 02:08:04,VALID,997.516,VALID,0,VALID,86.6412,VALID,0,VALID,25.7285,VALID,338,VALID,0.573828,
2011-12-24, 02:09:04,VALID,997.531,VALID,0,VALID,86.4123,VALID,0,VALID,25.748,VALID,348,VALID,0.682813,
2011-12-24, 02:10:04,VALID,997.509,VALID,0,VALID,86.5344,VALID,0,VALID,25.7265,VALID,341,VALID,0.525781,
2011-12-24, 02:11:04,VALID,997.481,VALID,0,VALID,86.6336,VALID,0,VALID,25.7071,VALID,325,VALID,0.142188,
2011-12-24, 02:12:04,VALID,997.487,VALID,0,VALID,86.7251,VALID,0,VALID,25.7285,VALID,334,VALID,0.68125,
2011-12-24, 02:13:04,VALID,997.493,VALID,0,VALID,86.4657,VALID,0,VALID,25.7285,VALID,342,VALID,0.799219,
2011-12-24, 02:14:04,VALID,997.469,VALID,0,VALID,86.4123,VALID,0,VALID,25.7285,VALID,345,VALID,0.707812,
2011-12-24, 02:15:04,VALID,997.466,VALID,0,VALID,86.4581,VALID,0,VALID,25.748,VALID,333,VALID,0.585547,
2011-12-24, 02:16:04,VALID,997.433,VALID,0,VALID,86.2598,VALID,0,VALID,25.746,VALID,345,VALID,0.552344,
2011-12-24, 02:17:04,VALID,997.428,VALID,0,VALID,86.3132,VALID,0,VALID,25.7674,VALID,357,VALID,0.689062,
2011-12-24, 02:18:04,VALID,997.413,VALID,0,VALID,86.2521,VALID,0,VALID,25.785,VALID,344,VALID,0.631641,
2011-12-24, 02:19:04,VALID,997.417,VALID,0,VALID,86.1606,VALID,0,VALID,25.7869,VALID,352,VALID,0.921875,
2011-12-24, 02:20:04,VALID,997.359,VALID,0,VALID,86.1301,VALID,0,VALID,25.785,VALID,346,VALID,0.960547,
2011-12-24, 02:21:04,VALID,997.335,VALID,0,VALID,85.9927,VALID,0,VALID,25.785,VALID,352,VALID,1.2168,
2011-12-24, 02:22:04,VALID,997.304,VALID,0,VALID,86.275,VALID,0,VALID,25.8044,VALID,353,VALID,0.814453,
2011-12-24, 02:23:04,VALID,997.308,VALID,0,VALID,86.069,VALID,0,VALID,25.7655,VALID,350,VALID,1.10938,
2011-12-24, 02:24:04,VALID,997.304,VALID,0,VALID,86.1072,VALID,0,VALID,25.8064,VALID,309,VALID,0.638281,
2011-12-24, 02:25:04,VALID,997.286,VALID,0,VALID,86.2369,VALID,0,VALID,25.7869,VALID,351,VALID,0.933594,
2011-12-24, 02:26:04,VALID,997.278,VALID,0,VALID,86.3132,VALID,0,VALID,25.7674,VALID,332,VALID,0.58125,
2011-12-24, 02:27:04,VALID,997.238,VALID,0,VALID,86.3818,VALID,0,VALID,25.7265,VALID,352,VALID,1.30508,
2011-12-24, 02:28:04,VALID,997.262,VALID,0,VALID,86.687,VALID,0,VALID,25.6895,VALID,3,VALID,0.790625,
2011-12-24, 02:29:04,VALID,997.282,VALID,0,VALID,86.6793,VALID,0,VALID,25.6681,VALID,352,VALID,1.21602,
2011-12-24, 02:30:04,VALID,997.285,VALID,0,VALID,86.7633,VALID,0,VALID,25.6506,VALID,350,VALID,1.74648,
2011-12-24, 02:31:04,VALID,997.283,VALID,0,VALID,86.8701,VALID,0,VALID,25.6116,VALID,353,VALID,1.35117,
2011-12-24, 02:32:04,VALID,997.259,VALID,0,VALID,87.0684,VALID,0,VALID,25.5941,VALID,307,VALID,0.316797,
2011-12-24, 02:33:04,VALID,997.245,VALID,0,VALID,87.2134,VALID,0,VALID,25.5532,VALID,337,VALID,0.309375,
2011-12-24, 02:34:04,VALID,997.232,VALID,0,VALID,87.1142,VALID,0,VALID,25.5104,VALID,299,VALID,0.866406,
2011-12-24, 02:35:04,VALID,997.251,VALID,0,VALID,87.0837,VALID,0,VALID,25.5337,VALID,75,VALID,0.401953,
2011-12-24, 02:36:04,VALID,997.222,VALID,0,VALID,86.9845,VALID,0,VALID,25.5337,VALID,307,VALID,1.05391,
2011-12-24, 02:37:04,VALID,997.204,VALID,0,VALID,86.9006,VALID,0,VALID,25.5123,VALID,336,VALID,0.711719,
2011-12-24, 02:38:04,VALID,997.255,VALID,0,VALID,86.7709,VALID,0,VALID,25.5318,VALID,298,VALID,0.838672,
2011-12-24, 02:39:04,VALID,997.217,VALID,0,VALID,86.4123,VALID,0,VALID,25.5123,VALID,290,VALID,1.78086,
2011-12-24, 02:40:04,VALID,997.215,VALID,0,VALID,86.3589,VALID,0,VALID,25.5532,VALID,290,VALID,1.12344,
2011-12-24, 02:41:04,VALID,997.17,VALID,0,VALID,86.3666,VALID,0,VALID,25.5532,VALID,312,VALID,0.963672,
2011-12-24, 02:42:04,VALID,997.171,VALID,0,VALID,86.0919,VALID,0,VALID,25.5707,VALID,285,VALID,1.29531,
2011-12-24, 02:43:04,VALID,997.084,VALID,0,VALID,85.9393,VALID,0,VALID,25.6116,VALID,286,VALID,1.35117,
2011-12-24, 02:44:04,VALID,997.069,VALID,0,VALID,85.9622,VALID,0.0815089,VALID,25.5902,VALID,289,VALID,0.633984,
2011-12-24, 02:45:04,VALID,997.06,VALID,0,VALID,86.069,VALID,0,VALID,25.5902,VALID,302,VALID,0.935156,
2011-12-24, 02:46:04,VALID,997.043,VALID,0,VALID,86.3284,VALID,0,VALID,25.6116,VALID,324,VALID,0.687891,
2011-12-24, 02:47:04,VALID,997.041,VALID,0,VALID,86.5191,VALID,0,VALID,25.6116,VALID,349,VALID,0.857422,
2011-12-24, 02:48:04,VALID,997.029,VALID,0,VALID,86.5039,VALID,0,VALID,25.5921,VALID,246,VALID,0.360156,
2011-12-24, 02:49:04,VALID,997.01,VALID,0,VALID,86.6412,VALID,0,VALID,25.5921,VALID,299,VALID,0.871094,
2011-12-24, 02:50:04,VALID,997.006,VALID,0,VALID,86.8243,VALID,0,VALID,25.5727,VALID,304,VALID,0.282422,
2011-12-24, 02:51:04,VALID,997.004,VALID,0,VALID,86.8395,VALID,0,VALID,25.5727,VALID,319,VALID,0.808984,
2011-12-24, 02:52:04,VALID,996.987,VALID,0,VALID,86.9464,VALID,0,VALID,25.5532,VALID,52,VALID,0.450391,
2011-12-24, 02:53:04,VALID,997.024,VALID,0,VALID,87.1294,VALID,0,VALID,25.5532,VALID,310,VALID,0.494531,
2011-12-24, 02:54:04,VALID,997.04,VALID,0,VALID,87.0837,VALID,0,VALID,25.5318,VALID,292,VALID,0.626953,
2011-12-24, 02:55:04,VALID,997.052,VALID,0,VALID,87.1676,VALID,0,VALID,25.5532,VALID,276,VALID,0.307813,
2011-12-24, 02:56:04,VALID,997.051,VALID,0,VALID,87.2134,VALID,0,VALID,25.5337,VALID,339,VALID,0.685938,
2011-12-24, 02:57:04,VALID,997.061,VALID,0,VALID,87.3965,VALID,0,VALID,25.5337,VALID,340,VALID,0.947266,
2011-12-24, 02:58:04,VALID,997.081,VALID,0,VALID,87.488,VALID,0,VALID,25.5337,VALID,318,VALID,0.285547,
2011-12-24, 02:59:04,VALID,997.07,VALID,0,VALID,87.6558,VALID,0,VALID,25.5357,VALID,292,VALID,0.791016,
2011-12-24, 03:00:04,VALID,997.067,VALID,0,VALID,87.7169,VALID,0,VALID,25.5142,VALID,336,VALID,0.375,
2011-12-24, 03:01:04,VALID,997.074,VALID,0,VALID,87.7474,VALID,0,VALID,25.4948,VALID,318,VALID,0.551953,
2011-12-24, 03:02:04,VALID,997.083,VALID,0,VALID,87.7703,VALID,0,VALID,25.4928,VALID,294,VALID,0.946484,
2011-12-24, 03:03:04,VALID,997.086,VALID,0,VALID,87.9152,VALID,0,VALID,25.4753,VALID,351,VALID,0.950781,
2011-12-24, 03:04:04,VALID,997.11,VALID,0,VALID,87.9991,VALID,0,VALID,25.4753,VALID,356,VALID,0.0382813,
2011-12-24, 03:05:04,VALID,997.072,VALID,0,VALID,87.9839,VALID,0,VALID,25.4558,VALID,280,VALID,0.651953,
2011-12-24, 03:06:04,VALID,997.098,VALID,0,VALID,88.0525,VALID,0,VALID,25.4344,VALID,316,VALID,0.755859,
2011-12-24, 03:07:04,VALID,997.098,VALID,0,VALID,88.1288,VALID,0,VALID,25.4558,VALID,297,VALID,0.514844,
2011-12-24, 03:08:04,VALID,997.107,VALID,0,VALID,88.1899,VALID,0,VALID,25.4344,VALID,282,VALID,0.524609,
2011-12-24, 03:09:04,VALID,997.09,VALID,0,VALID,88.1822,VALID,0,VALID,25.4344,VALID,299,VALID,0.924219,
2011-12-24, 03:10:04,VALID,997.129,VALID,0,VALID,88.3424,VALID,0,VALID,25.4169,VALID,310,VALID,0.153516,
2011-12-24, 03:11:04,VALID,997.118,VALID,0,VALID,88.495,VALID,0,VALID,25.4169,VALID,289,VALID,0.0304688,
2011-12-24, 03:12:04,VALID,997.096,VALID,0,VALID,88.5408,VALID,0,VALID,25.3955,VALID,280,VALID,0.565625,
2011-12-24, 03:13:04,VALID,997.097,VALID,0,VALID,88.4874,VALID,0,VALID,25.3779,VALID,316,VALID,0.399609,
2011-12-24, 03:14:04,VALID,997.046,VALID,0,VALID,88.5026,VALID,0,VALID,25.3779,VALID,309,VALID,0.253125,
2011-12-24, 03:15:04,VALID,997.062,VALID,0,VALID,88.5103,VALID,0,VALID,25.3565,VALID,291,VALID,0.524609,
2011-12-24, 03:16:04,VALID,997.038,VALID,0,VALID,88.5866,VALID,0,VALID,25.3176,VALID,286,VALID,0.732422,
2011-12-24, 03:17:04,VALID,997.036,VALID,0,VALID,88.7468,VALID,0,VALID,25.3176,VALID,307,VALID,0.409766,
2011-12-24, 03:18:04,VALID,997.012,VALID,0,VALID,88.8154,VALID,0,VALID,25.3195,VALID,301,VALID,0.319922,
2011-12-24, 03:19:04,VALID,996.995,VALID,0,VALID,88.968,VALID,0,VALID,25.3,VALID,347,VALID,0.334766,
2011-12-24, 03:20:04,VALID,996.975,VALID,0,VALID,89.029,VALID,0,VALID,25.2806,VALID,351,VALID,0.762891,
2011-12-24, 03:21:04,VALID,997.035,VALID,0,VALID,89.174,VALID,0,VALID,25.2806,VALID,290,VALID,0.624219,
2011-12-24, 03:22:04,VALID,997.044,VALID,0,VALID,89.1892,VALID,0,VALID,25.2592,VALID,289,VALID,0.308984,
2011-12-24, 03:23:04,VALID,997.056,VALID,0,VALID,89.296,VALID,0,VALID,25.2806,VALID,289,VALID,0.0527344,
2011-12-24, 03:24:04,VALID,997.072,VALID,0,VALID,89.3571,VALID,0,VALID,25.2397,VALID,341,VALID,0.555469,
2011-12-24, 03:25:04,VALID,997.101,VALID,0,VALID,89.4334,VALID,0,VALID,25.2397,VALID,305,VALID,0.389453,
2011-12-24, 03:26:04,VALID,997.098,VALID,0,VALID,89.5478,VALID,0,VALID,25.2416,VALID,305,VALID,0.0605469,
2011-12-24, 03:27:04,VALID,997.123,VALID,0,VALID,89.6317,VALID,0,VALID,25.2416,VALID,305,VALID,0,
2011-12-24, 03:28:04,VALID,997.161,VALID,0,VALID,89.7385,VALID,0,VALID,25.2027,VALID,305,VALID,0.0417969,
2011-12-24, 03:29:04,VALID,997.177,VALID,0,VALID,89.7996,VALID,0,VALID,25.1813,VALID,285,VALID,0.273438,
2011-12-24, 03:30:04,VALID,997.161,VALID,0,VALID,89.9826,VALID,0,VALID,25.1618,VALID,19,VALID,0.673437,
2011-12-24, 03:31:04,VALID,997.189,VALID,0,VALID,90.0055,VALID,0,VALID,25.1813,VALID,354,VALID,0.532422,
2011-12-24, 03:32:04,VALID,997.197,VALID,0,VALID,90.0513,VALID,0.0815089,VALID,25.1813,VALID,354,VALID,0.0921875,
2011-12-24, 03:33:04,VALID,997.215,VALID,0,VALID,90.1123,VALID,0,VALID,25.1618,VALID,323,VALID,0.0699219,
2011-12-24, 03:34:04,VALID,997.206,VALID,0,VALID,90.1505,VALID,0,VALID,25.1423,VALID,323,VALID,0.0703125,
2011-12-24, 03:35:04,VALID,997.219,VALID,0,VALID,90.242,VALID,0,VALID,25.1618,VALID,328,VALID,0.384766,
2011-12-24, 03:36:04,VALID,997.23,VALID,0,VALID,90.2802,VALID,0,VALID,25.121,VALID,331,VALID,0.185547,
2011-12-24, 03:37:04,VALID,997.25,VALID,0,VALID,90.3336,VALID,0,VALID,25.1442,VALID,331,VALID,0.368359,
2011-12-24, 03:38:04,VALID,997.258,VALID,0,VALID,90.4251,VALID,0,VALID,25.1229,VALID,340,VALID,0.441016,
2011-12-24, 03:39:04,VALID,997.266,VALID,0,VALID,90.5014,VALID,0,VALID,25.1034,VALID,340,VALID,0.271875,
2011-12-24, 03:40:04,VALID,997.25,VALID,0,VALID,90.5777,VALID,0,VALID,25.1053,VALID,340,VALID,0.126563,
2011-12-24, 03:41:04,VALID,997.239,VALID,0,VALID,90.6464,VALID,0.0815089,VALID,25.1053,VALID,340,VALID,0.250781,
2011-12-24, 03:42:04,VALID,997.195,VALID,0,VALID,90.6998,VALID,0.0815089,VALID,25.0839,VALID,340,VALID,0.237891,
2011-12-24, 03:43:04,VALID,997.168,VALID,0,VALID,90.7837,VALID,0,VALID,25.0839,VALID,349,VALID,0.711328,
2011-12-24, 03:44:04,VALID,997.204,VALID,0,VALID,90.7837,VALID,0.0815089,VALID,25.0858,VALID,349,VALID,0.442578,